Regional Weather Roundup
Issued by NWS

Home | Current Version | Previous Version | Text Only | Print | Product List | Glossary Off
Versions: 1 2 3 4 5 6 7 8 9 10 11 12 13 14 15 16 17 18 19 20 21 22 23 24 25 26 27 28 29 30 31 32 33 34 35 36 37 38 39 40 41 42 43 44 45 46 47 48 49 50

000
ASUS45 KBOU 021307
RWRCO

WEATHER ROUNDUP FOR COLORADO
NATIONAL WEATHER SERVICE DENVER/BOULDER CO
700 AM MDT THU OCT 02 2014

NOTE: "FAIR" INDICATES FEW OR NO CLOUDS BELOW 12000 FEET WITH NO
SIGNIFICANT WEATHER AND/OR OBSTRUCTIONS TO VISIBILITY.

COZ001>005-013-030-031-021400-
...NORTHWEST COLORADO...

CITY           SKY/WX    TMP DP  RH WIND       PRES   REMARKS
CRAIG          FOG       29  26  89 CALM      30.28R VSB 1
HAYDEN         PTCLDY    34  28  80 CALM      30.27R
MEEKER         CLOUDY    35  33  92 E5        30.29R WCI  31
MOUNT WERNER   NOT AVBL
STEAMBOAT SPGS MOCLDY    34  32  92 CALM      30.27R
WALDEN         PTCLDY    27  23  86 S5        30.23R WCI  21
$$

COZ006>008-011-021400-
...WEST CENTRAL VALLEYS...

CITY           SKY/WX    TMP DP  RH WIND       PRES   REMARKS
GRAND JUNCTION CLEAR     37  35  92 CALM      30.27R
MONTROSE       PTCLDY    39  36  89 CALM      30.30S
EAGLE          PTCLDY    34  34 100 CALM      30.30S
RIFLE          CLEAR     36  33  89 CALM      30.29R
DELTA          FLURRIES  38  37  93 CALM      30.29R
NUCLA          CLEAR     36  32  87 SE5       30.31R
$$

COZ017>023-064>068-021400-
...SOUTHWEST COLORADO...

CITY           SKY/WX    TMP DP  RH WIND       PRES   REMARKS
DURANGO        CLEAR     35  26  69 VRB6      30.18R WCI  30
CORTEZ         CLEAR     39  30  70 NW6       30.22S
PAGOSA SPRINGS CLEAR     33  25  73 CALM      30.22R
TELLURIDE      PTCLDY   N/A N/A N/A CALM      30.28S
WOLF CREEK PAS CLEAR     18  12  79 NE28G40   30.27R WCI  -1
$$

COZ009-010-012-014-032>034-037-058>063-021400-
...CENTRAL COLORADO...

CITY           SKY/WX    TMP DP  RH WIND       PRES   REMARKS
ASPEN          CLOUDY    33  31  92 N3        30.28S
BUENA VISTA    PTCLDY    33  23  66 NW12G20   30.24R WCI  24
COPPER MTN     CLOUDY    23  18  80 W21G30    30.28R HAZE    WCI   8
BERTHOUD PASS  CLOUDY    14  12  92 N18G35    30.26R WCI  -3
COTTONWOOD PAS PTCLDY    30  19  64 N7        30.25R WCI  23
GUNNISON       CLEAR     32  25  74 CALM      30.29R
KREMMLING      CLOUDY    34  32  93 CALM      30.27S
LEADVILLE      CLOUDY    25  17  72 N14G20    30.26R WCI  13
MONARCH PASS   MOCLDY    18  14  86 MISG      30.38R
SALIDA         PTCLDY    38  24  57 W9        30.30R
SUNLIGHT       MOCLDY   N/A N/A N/A N5        30.33R
WILKERSON PASS NOT AVBL
$$

COZ069>075-021400-
...SAN LUIS VALLEY/SANGRE DE CRISTO MOUNTAINS...

CITY           SKY/WX    TMP DP  RH WIND       PRES   REMARKS
ALAMOSA        FLURRIES  36  23  59 NW12      30.19R
LA VETA PASS   MOCLDY    28  27  93 NW8       30.23R WCI  20
SAGUACHE       PTCLDY    34  27  75 N15       30.23R WCI  24
$$

COZ035-036-038>040-021400-
...NORTHERN COLORADO FRONT RANGE...

CITY           SKY/WX    TMP DP  RH WIND       PRES   REMARKS
DENVER INTL AP PTCLDY    40  36  86 SW5       30.13S
DMNS CITY PARK   N/A     39  37  94 S5        30.14R
AURORA         PTCLDY    37  37  99 S8        30.15R
FRONT RANGE AP CLEAR     41  37  87 SW5       30.14S
ERIE MUNI ARPT CLEAR     37  37  99 CALM      30.13S
BOULDER MUN AP CLEAR     37  36  93 SW3       30.13S
CENTENNIAL     PTCLDY    36  34  92 SE3       30.14R
BROOMFIELD     PTCLDY    37  36  93 SW6       30.13F
FORT COLLINS   CLEAR     36  34  93 S3        30.14R
LONGMONT       CLEAR     37  35  93 CALM      30.15R
$$

COZ041-046-047-076>085-087-088-021400-
...PIKES PEAK/PALMER DIVIDE AND SOUTHERN FOOTHILLS...

CITY           SKY/WX    TMP DP  RH WIND       PRES   REMARKS
COLO. SPRINGS  PTCLDY    39  32  76 N14       30.15R
A. F. ACADEMY  CLEAR     34  30  84 N7        30.15R WCI  28
ELLICOTT       NOT AVBL
FALCON         PTCLDY    36  32  85 N8        30.16R
FORT CARSON    PTCLDY    42  33  69 N5        30.13R
LIMON          PTCLDY    39  38  96 N14       30.12R
MONUMENT HILL  CLEAR     32  32 100 NW5       30.15R WCI  27
TRINIDAD       CLOUDY    44  37  76 W5        30.16R
$$

COZ042>045-048>051-090-091-021400-
...NORTHEAST COLORADO...

CITY           SKY/WX    TMP DP  RH WIND       PRES   REMARKS
GREELEY ARPT   CLEAR     37  30  75 CALM      30.13S
AKRON          PTCLDY    40  39  97 NW7       30.10R
BURLINGTON     CLEAR     44  41  89 NW13      30.07R
WRAY           CLEAR     45  45 100 NW9       30.07R
STERLING       PTCLDY    43  41  93 NW8       30.08S
HOLYOKE        CLEAR     45  41  87 NW8       30.07R
FORT MORGAN    PTCLDY    41  37  87 NW9       30.12F
$$

COZ086-089-092>099-021400-
...SOUTHEAST COLORADO...

CITY           SKY/WX    TMP DP  RH WIND       PRES   REMARKS
PUEBLO         MOCLDY    46  36  68 W6        30.13R
LA JUNTA       CLOUDY    50  39  66 NW9       30.12R
LAMAR          MOCLDY    48  42  80 NW6       30.07R
SPRINGFIELD      N/A     44  38  79 NW15      30.07R
$$



USA.gov is the U.S. government's official web portal to all federal, state and local government web resources and services.